Location: Casco Volunteer Fire Department
(44.5576°N, 87.6146°W)
Time: 14:14:34
(UTC+00:00)

Cosmos 1869 Rocket - Visible Passes

Search period start: 11 April 2026 00:00
Search period end: 21 April 2026 00:00
Orbit: 599 x 624 km, 82.5° (Epoch: 11 April)

Date Brightness Start Highest point End Pass type
(mag) Time Alt. Az. Time Alt. Az. Time Alt. Az.
11 Apr 5.5 01:08:11 10° ESE 01:09:48 12° E 01:11:24 10° ENE visible
11 Apr 3.8 02:44:46 29° SSW 02:46:52 65° W 02:51:16 10° N visible
12 Apr 4.9 01:21:30 11° SE 01:24:29 20° E 01:27:42 10° NE visible
12 Apr 4.9 02:58:24 13° SW 03:01:54 37° WNW 03:06:01 10° N visible
13 Apr 4.2 01:35:19 10° SSE 01:39:14 34° E 01:43:13 10° NNE visible
13 Apr 5.8 03:13:33 10° SW 03:17:01 23° WNW 03:20:31 10° NNW visible
14 Apr 3.5 01:49:47 10° S 01:54:05 59° E 01:58:25 10° NNE visible
14 Apr 6.5 03:29:54 10° W 03:32:13 14° WNW 03:34:34 10° NW visible
15 Apr 3.6 02:04:37 10° SSW 02:08:59 78° W 02:13:25 10° N visible
16 Apr 4.7 02:19:48 10° SSW 02:24:00 44° WNW 02:28:14 10° N visible
17 Apr 5.7 02:35:22 10° SW 02:39:04 27° WNW 02:42:51 10° NNW visible
18 Apr 3.8 01:12:00 10° SSE 01:16:13 49° E 01:20:30 10° NNE visible
18 Apr 6.5 02:51:26 10° WSW 02:54:15 16° WNW 02:57:05 10° NNW visible
19 Apr 3.5 01:26:44 10° S 01:31:07 87° E 01:35:33 10° N visible
20 Apr 4.4 01:41:48 10° SSW 01:46:05 53° WNW 01:50:26 10° N visible
